Skip Page Navigation
NASA JPL Caltech
NASA Logo - Jet Propulsion Laboratory + View the NASA Portal
+ Near-Earth Object (NEO) Program
Search JPL
JPL Home Earth Solar System Stars & Galaxies Technology
JPL Solar System Dynamics
BODIES ORBITS EPHEMERIDES TOOLS PHYSICAL DATA DISCOVERY FAQ SITE MAP
JPL Small-Body Database Browser
Search: [ help ]  
2995 Taratuta (1978 QK)
Classification: Main-belt Asteroid          SPK-ID: 2002995
Ephemeris | Orbit Diagram | Orbital Elements | Physical Parameters | Discovery Circumstances | Close-Approach Data ]

[ show orbit diagram ]
Orbital Elements at Epoch 2456800.5 (2014-May-23.0) TDB
Reference: JPL 7 (heliocentric ecliptic J2000)
 Element Value Uncertainty (1-sigma)   Units 
e .13575381172423 7.4921e-08  
a 2.6156069717477 1.7242e-08 AU
q 2.260528355360479 1.9769e-07 AU
i 14.83643937148436 9.1142e-06 deg
node 169.7852588014944 2.3601e-05 deg
peri 329.2707638247613 3.9538e-05 deg
M 30.70522512723661 2.8056e-05 deg
tp 2456668.714708528113
(2014-Jan-11.21470853)
0.00012075 JED
period 1545.102005710286
4.23
1.5278e-05
4.183e-08
d
yr
n .2329943257270625 2.3039e-09 deg/d
Q 2.97068558813492 1.9583e-08 AU
  Orbit Determination Parameters
   # obs. used (total)      958  
   data-arc span      21535 days (58.96 yr)  
   first obs. used      1955-03-21  
   last obs. used      2014-03-06  
   planetary ephem.      DE431  
   SB-pert. ephem.      SB431-BIG16  
   condition code      0  
   fit RMS      .48631  
   data source      ORB  
   producer      Otto Matic  
   solution date      2014-Mar-22 10:41:22  

Additional Information
 Earth MOID = 1.28345 AU 
 T_jup = 3.347 
[ show covariance matrix ]

Ephemeris | Orbit Diagram | Orbital Elements | Physical Parameters | Discovery Circumstances | Close-Approach Data ]

Physical Parameter Table
Parameter Symbol Value Units Sigma Reference Notes
absolute magnitude H 12.0 mag n/a MPO279546  
diameter diameter 16.59 km 1.2 IRAS-A-FPA-3-RDR-IMPS-V6.0 IRAS observations used: 3
rotation period rot_per 6.6 h n/a Asteroid Lightcurve DataBase (Rev. 2013-Sep-12) Result based on fragmentary lightcurve(s), may be completely wrong.
Published Reference List:
[Behrend, R. (2006) Observatoire de Geneve web site, http://obswww.unige.ch/~behrend/page_cou.html]
geometric albedo albedo 0.0704   0.011 IRAS-A-FPA-3-RDR-IMPS-V6.0 IRAS observations used: 3

2995 Taratuta (1978 QK)          Discovered 1978-Aug-31 by Chernykh, N. at Nauchnyj
Reference: DISCOVERY.DBLast Updated: 2003-08-29

[ show close-approach data ]
Alternate Designations
 1978 QK = 1951 JS = 1955 FD2 = 1955 FU = 1959 EE 
Ephemeris | Orbit Diagram | Orbital Elements | Physical Parameters | Discovery Circumstances | Close-Approach Data ]
ABOUT SSD CREDITS/AWARDS PRIVACY/COPYRIGHT GLOSSARY LINKS
FirstGov 2014-Apr-17 06:46 UT
(server date/time)  
NASA Home Page
Site Manager:   Donald K. Yeomans
Webmaster  Alan B. Chamberlin